Weather History for Wolf Point, MT

Change the Weather History Date:

Saturday, January 18, 2014

  Actual Average Record
Temperature  
Mean Temperature 33 °F -  
Max Temperature 43 °F 24 °F 43 °F (2014)
Min Temperature 23 °F 1 °F -19 °F (2012)
Degree Days  
Heating Degree Days 32    
Cooling Degree Days 0    
Moisture  
Dew Point 26 °F    
Average Humidity 73    
Maximum Humidity 81    
Minimum Humidity 60    
Precipitation  
Precipitation 0.00 in 0.01 in 0.15 in (2011)
Month to date precipitation 0.05 0.22  
Year to date precipitation 0.05 0.22  
Sea Level Pressure  
Sea Level Pressure 30.03 in    
Wind  
Wind Speed 12 mph (WSW)    
Max Wind Speed 17 mph    
Max Gust Speed 24 mph    
Visibility 10 miles    
Events      
T = Trace of Precipitation, MM = Missing Value Source: NWS Daily Summary

Daily Weather History Graph

Daily Weather History Graph

Search for Another Location

Airport:

Trip Planner

Search our weather history database for the weather conditions in past years. The results will help you decide how hot, cold, wet, or windy it might be!

Date:

Astronomy

Jan. 18, 2014 Rise Set
Actual Time 7:45 AM MST 4:40 PM MST
Civil Twilight 7:10 AM MST 5:15 PM MST
Nautical Twilight 6:31 AM MST 5:54 PM MST
Astronomical Twilight 5:54 AM MST 6:31 PM MST
Moon 7:41 PM MST (1/18) 8:32 AM MST (1/18)
Length of Visible Light 10h 05m
Length of Day
8h 55m
Waning Gibbous, 94% of the Moon is Illuminated
Jan 18
Waning Gibbous
Jan 23
Last Quarter
Jan 30
New
Feb 6
First Quarter
Feb 14
Full

Hourly Weather History & Observations

Time (MST) Temp. Windchill Dew Point Humidity Pressure Visibility Wind Dir Wind Speed Gust Speed Precip Events Conditions
12:53 AM 34.0 °F 24.2 °F 26.1 °F 73% 30.05 in 10.0 mi West 15.0 mph 24.2 mph N/A   Clear
1:53 AM 32.0 °F 21.2 °F 25.0 °F 75% 30.08 in 10.0 mi West 16.1 mph - N/A   Clear
2:53 AM 30.9 °F 19.4 °F 25.0 °F 79% 30.13 in 10.0 mi West 17.3 mph - N/A   Clear
3:53 AM 32.0 °F 21.6 °F 24.1 °F 73% 30.14 in 10.0 mi West 15.0 mph - N/A   Clear
4:53 AM 30.0 °F 20.5 °F 23.0 °F 75% 30.17 in 10.0 mi West 11.5 mph - N/A   Clear
5:53 AM 28.0 °F 18.6 °F 21.9 °F 78% 30.20 in 10.0 mi South 10.4 mph - N/A   Clear
6:53 AM 26.1 °F 17.6 °F 19.9 °F 78% 30.20 in 10.0 mi West 8.1 mph - N/A   Clear
7:53 AM 25.0 °F 15.5 °F 19.9 °F 81% 30.20 in 10.0 mi West 9.2 mph - N/A   Clear
8:53 AM 26.1 °F 15.0 °F 21.0 °F 81% 30.21 in 10.0 mi WSW 12.7 mph - N/A   Clear
9:53 AM 28.9 °F 18.6 °F 21.9 °F 75% 30.19 in 10.0 mi WSW 12.7 mph - N/A   Clear
10:53 AM 33.1 °F 26.1 °F 25.0 °F 72% 30.17 in 10.0 mi WSW 8.1 mph - N/A   Clear
11:53 AM 36.0 °F 29.6 °F 26.1 °F 67% 30.10 in 10.0 mi West 8.1 mph - N/A   Clear
12:53 PM 39.0 °F 32.8 °F 28.0 °F 65% 30.06 in 10.0 mi WSW 9.2 mph - N/A   Clear
1:53 PM 41.0 °F 36.4 °F 28.9 °F 62% 30.02 in 10.0 mi West 6.9 mph - N/A   Clear
2:53 PM 42.1 °F 36.1 °F 28.9 °F 60% 29.98 in 10.0 mi SW 10.4 mph - N/A   Clear
3:53 PM 41.0 °F 34.7 °F 30.0 °F 65% 29.94 in 10.0 mi SW 10.4 mph - N/A   Clear
4:53 PM 39.0 °F 32.8 °F 30.0 °F 70% 29.92 in 10.0 mi WSW 9.2 mph - N/A   Clear
5:53 PM 34.0 °F 28.0 °F 28.0 °F 79% 29.91 in 10.0 mi West 6.9 mph - N/A   Clear
6:53 PM 36.0 °F 29.0 °F 28.0 °F 73% 29.88 in 10.0 mi WSW 9.2 mph - N/A   Clear
7:53 PM 35.1 °F 27.4 °F 28.0 °F 76% 29.86 in 10.0 mi WSW 10.4 mph - N/A   Clear
8:53 PM 35.1 °F 26.9 °F 27.0 °F 72% 29.84 in 10.0 mi WSW 11.5 mph - N/A   Clear
9:53 PM 33.1 °F 25.5 °F 27.0 °F 78% 29.82 in 10.0 mi WSW 9.2 mph - N/A   Clear
10:53 PM 33.1 °F 23.4 °F 26.1 °F 75% 29.79 in 10.0 mi WSW 13.8 mph - N/A   Clear
11:53 PM 30.9 °F 22.8 °F 25.0 °F 79% 29.75 in 10.0 mi WSW 9.2 mph - N/A   Clear